| time (UTC) | temp F | wind direction | speed knots | gust knots | rain 1hr in | rain 24hr in | rain mn in | humidity % | barometer mb |
| 20260504200037 | 76 | 0.0 | 2.6 | 0.00 | 0.00 | 0.00 | 42 | 1010.7 | |
| 20260504195017 | 76 | 45 | 0.9 | 3.5 | 0.00 | 0.00 | 0.00 | 42 | 1010.6 |
| 20260504194016 | 75 | 0.0 | 1.7 | 0.00 | 0.00 | 0.00 | 44 | 1010.7 | |
| 20260504193017 | 75 | 135 | 0.9 | 4.3 | 0.00 | 0.00 | 0.00 | 45 | 1010.9 |
| 20260504192017 | 75 | 158 | 0.9 | 3.5 | 0.00 | 0.00 | 0.00 | 44 | 1010.9 |
| 20260504191016 | 74 | 158 | 0.9 | 3.5 | 0.00 | 0.00 | 0.00 | 45 | 1011.0 |
| 20260504190017 | 74 | 113 | 0.9 | 4.3 | 0.00 | 0.00 | 0.00 | 44 | 1011.0 |
| 20260504185016 | 74 | 158 | 0.9 | 3.5 | 0.00 | 0.00 | 0.00 | 46 | 1011.1 |
| 20260504184017 | 74 | 158 | 0.9 | 2.6 | 0.00 | 0.00 | 0.00 | 46 | 1011.1 |
| 20260504183016 | 73 | 158 | 0.9 | 3.5 | 0.00 | 0.00 | 0.00 | 47 | 1011.1 |
| 20260504182016 | 73 | 135 | 0.9 | 3.5 | 0.00 | 0.00 | 0.00 | 48 | 1011.1 |
| 20260504181016 | 73 | 0.0 | 1.7 | 0.00 | 0.00 | 0.00 | 49 | 1011.1 | |
| 20260504180017 | 72 | 158 | 0.9 | 2.6 | 0.00 | 0.00 | 0.00 | 48 | 1011.2 |
| 20260504175017 | 72 | 0.0 | 1.7 | 0.00 | 0.00 | 0.00 | 51 | 1011.1 | |
| 20260504174016 | 71 | 158 | 0.9 | 2.6 | 0.00 | 0.00 | 0.00 | 50 | 1011.1 |
| 20260504173016 | 71 | 135 | 0.9 | 2.6 | 0.00 | 0.00 | 0.00 | 53 | 1011.1 |
| 20260504172017 | 70 | 0 | 0.9 | 2.6 | 0.00 | 0.00 | 0.00 | 52 | 1011.1 |
| 20260504171056 | 69 | 0.0 | 2.6 | 0.00 | 0.00 | 0.00 | 56 | 1011.1 | |
| 20260504151017 | 56 | 0.0 | 0.0 | 0.00 | 0.00 | 0.00 | 83 | 1010.7 | |
| 20260504141016 | 52 | 0.0 | 0.0 | 0.00 | 0.00 | 0.00 | 91 | 1010.4 | |
| 20260504081016 | 56 | 0.0 | 0.0 | 0.00 | 0.00 | 0.00 | 83 | 1009.8 | |
| 20260504050018 | 63 | 0.0 | 0.0 | 0.00 | 0.00 | 0.00 | 70 | 1009.8 | |
| 20260504045017 | 64 | 0.0 | 0.0 | 0.00 | 0.00 | 0.00 | 71 | 1009.8 | |
| 20260504044017 | 64 | 0.0 | 0.0 | 0.00 | 0.00 | 0.00 | 69 | 1009.7 | |
| 20260504043017 | 65 | 0.0 | 0.0 | 0.00 | 0.00 | 0.00 | 69 | 1009.7 | |
| 20260504042017 | 65 | 0.0 | 0.0 | 0.00 | 0.00 | 0.00 | 71 | 1009.7 | |
| 20260504041017 | 66 | 0.0 | 0.0 | 0.00 | 0.00 | 0.00 | 69 | 1009.6 | |
| 20260504040017 | 67 | 0.0 | 0.0 | 0.00 | 0.00 | 0.00 | 67 | 1009.5 | |
| 20260504035017 | 68 | 0.0 | 0.0 | 0.00 | 0.00 | 0.00 | 67 | 1009.5 | |
| 20260504034017 | 68 | 0.0 | 0.0 | 0.00 | 0.00 | 0.00 | 65 | 1009.4 | |
| 20260504033017 | 69 | 0.0 | 0.0 | 0.00 | 0.00 | 0.00 | 65 | 1009.3 | |
| 20260504032017 | 70 | 0.0 | 0.0 | 0.00 | 0.00 | 0.00 | 62 | 1009.2 | |
| 20260504031017 | 71 | 0.0 | 0.9 | 0.00 | 0.00 | 0.00 | 59 | 1009.2 | |
| 20260504030017 | 72 | 0.0 | 0.9 | 0.00 | 0.00 | 0.00 | 57 | 1009.2 | |
| 20260504025017 | 73 | 0.0 | 1.7 | 0.00 | 0.00 | 0.00 | 57 | 1009.2 | |
| 20260504024017 | 74 | 158 | 0.9 | 2.6 | 0.00 | 0.00 | 0.00 | 55 | 1009.2 |
| 20260504023017 | 75 | 158 | 0.9 | 2.6 | 0.00 | 0.00 | 0.00 | 53 | 1009.1 |
| 20260504022057 | 76 | 158 | 0.9 | 2.6 | 0.00 | 0.00 | 0.00 | 52 | 1009.2 |
| 20260504021017 | 76 | 158 | 0.9 | 2.6 | 0.00 | 0.00 | 0.00 | 50 | 1009.2 |
| 20260504020017 | 77 | 158 | 0.9 | 2.6 | 0.00 | 0.00 | 0.00 | 50 | 1009.2 |
| 20260504015017 | 78 | 158 | 0.9 | 2.6 | 0.00 | 0.00 | 0.00 | 47 | 1009.2 |
| 20260504014017 | 79 | 0.0 | 2.6 | 0.00 | 0.00 | 0.00 | 46 | 1009.4 | |
| 20260504013017 | 79 | 158 | 0.9 | 2.6 | 0.00 | 0.00 | 0.00 | 44 | 1009.4 |
| 20260504012017 | 79 | 158 | 0.9 | 3.5 | 0.00 | 0.00 | 0.00 | 43 | 1009.4 |
| 20260504011017 | 79 | 0.0 | 2.6 | 0.00 | 0.00 | 0.00 | 46 | 1009.6 | |
| 20260504010017 | 79 | 0.0 | 2.6 | 0.00 | 0.00 | 0.00 | 45 | 1009.6 | |
| 20260504005017 | 79 | 158 | 0.9 | 3.5 | 0.00 | 0.00 | 0.00 | 44 | 1009.7 |
| 20260504004017 | 80 | 158 | 0.9 | 2.6 | 0.00 | 0.00 | 0.00 | 45 | 1009.8 |
| 20260504003017 | 80 | 0.0 | 1.7 | 0.00 | 0.00 | 0.00 | 45 | 1009.8 | |
| 20260504002017 | 80 | 158 | 0.9 | 2.6 | 0.00 | 0.00 | 0.00 | 45 | 1009.9 |
| 20260504001017 | 80 | 0.0 | 4.3 | 0.00 | 0.00 | 0.00 | 43 | 1010.0 | |
| 20260504000017 | 80 | 0.0 | 1.7 | 0.00 | 0.00 | 0.00 | 45 | 1010.1 | |
| 20260503235017 | 80 | 158 | 0.9 | 3.5 | 0.00 | 0.00 | 0.00 | 46 | 1010.2 |
| 20260503234017 | 80 | 158 | 0.9 | 3.5 | 0.00 | 0.00 | 0.00 | 45 | 1010.3 |
| 20260503233018 | 80 | 0.0 | 2.6 | 0.00 | 0.00 | 0.00 | 44 | 1010.4 | |
| 20260503232016 | 80 | 225 | 0.9 | 3.5 | 0.00 | 0.00 | 0.00 | 43 | 1010.5 |
| 20260503231017 | 80 | 158 | 0.9 | 3.5 | 0.00 | 0.00 | 0.00 | 43 | 1010.7 |
| 20260503230017 | 80 | 158 | 1.7 | 5.2 | 0.00 | 0.00 | 0.00 | 43 | 1010.8 |
| 20260503225016 | 80 | 158 | 0.9 | 4.3 | 0.00 | 0.00 | 0.00 | 42 | 1010.9 |
| 20260503224016 | 80 | 158 | 0.9 | 3.5 | 0.00 | 0.00 | 0.00 | 42 | 1011.0 |
| 20260503223017 | 81 | 225 | 0.9 | 5.2 | 0.00 | 0.00 | 0.00 | 43 | 1011.2 |
| 20260503222016 | 81 | 203 | 0.9 | 5.2 | 0.00 | 0.00 | 0.00 | 44 | 1011.2 |
| 20260503221017 | 81 | 225 | 0.9 | 4.3 | 0.00 | 0.00 | 0.00 | 45 | 1011.2 |
| 20260503220016 | 81 | 158 | 0.9 | 4.3 | 0.00 | 0.00 | 0.00 | 47 | 1011.3 |
| 20260503215017 | 81 | 158 | 0.9 | 3.5 | 0.00 | 0.00 | 0.00 | 48 | 1011.4 |
| 20260503214016 | 81 | 0.0 | 2.6 | 0.00 | 0.00 | 0.00 | 48 | 1011.5 | |
| 20260503213016 | 81 | 225 | 0.9 | 2.6 | 0.00 | 0.00 | 0.00 | 49 | 1011.5 |
| 20260503212036 | 80 | 158 | 0.9 | 4.3 | 0.00 | 0.00 | 0.00 | 48 | 1011.7 |
| 20260503211036 | 80 | 158 | 0.9 | 4.3 | 0.00 | 0.00 | 0.00 | 49 | 1011.7 |
| 20260503210016 | 79 | 158 | 0.9 | 3.5 | 0.00 | 0.00 | 0.00 | 50 | 1011.9 |
| 20260503205056 | 79 | 180 | 0.9 | 1.7 | 0.00 | 0.00 | 0.00 | 51 | 1012.0 |
| 20260503204017 | 78 | 158 | 0.9 | 3.5 | 0.00 | 0.00 | 0.00 | 52 | 1012.1 |
| 20260503203017 | 78 | 225 | 0.9 | 2.6 | 0.00 | 0.00 | 0.00 | 49 | 1012.3 |
| 20260503202016 | 77 | 0.0 | 2.6 | 0.00 | 0.00 | 0.00 | 51 | 1012.4 | |
| 20260503201036 | 76 | 0.0 | 1.7 | 0.00 | 0.00 | 0.00 | 53 | 1012.5 |